Change the Weather History Date:

Friday, October 5, 2012

  Actual Average Record
Temperature  
Mean Temperature 72 °F -  
Max Temperature 79 °F 72 °F 84 °F (2004)
Min Temperature 64 °F 57 °F 55 °F (1996)
Cooling Degree Days 6    
Growing Degree Days 22 (Base 50)    
Moisture  
Dew Point 63 °F    
Average Humidity 73    
Maximum Humidity 88    
Minimum Humidity 47    
Precipitation  
Precipitation 0.00 in 0.10 in - ()
Sea Level Pressure  
Sea Level Pressure 30.06 in    
Wind  
Wind Speed 6 mph ()    
Max Wind Speed 9 mph    
Max Gust Speed -    
Visibility 4.8 miles    
Events      
Averages and records for this station are not official NWS values.
T = Trace of Precipitation, MM = Missing Value Source: Averaged Metar Reports

Daily Weather History Graph

Daily Weather History Graph

Search for Another Location

Airport or City:

Trip Planner

Search our weather history database for the weather conditions in past years. The results will help you decide how hot, cold, wet, or windy it might be!

Date:

Astronomy

Oct. 05, 2012 Rise Set
Actual Time 6:22 AM WET 6:01 PM WET
Civil Twilight 5:56 AM WET 6:26 PM WET
Nautical Twilight 5:26 AM WET 6:56 PM WET
Astronomical Twilight 4:57 AM WET 7:25 PM WET
Moon 9:22 PM WET (10/5) 11:08 AM WET (10/5)
Length of Visible Light 12h 30m
Length of Day
11h 39m
Waning Gibbous, 75% of the Moon is Illuminated
Oct 5
Waning Gibbous
Oct 8
Last Quarter
Oct 15
New
Oct 22
First Quarter
Oct 29
Full

Hourly Weather History & Observations

Time (WET) Temp. Dew Point Humidity Pressure Visibility Wind Dir Wind Speed Gust Speed Precip Events Conditions
12:00 AM 69 °F 62 °F 73% 30.01 in 5 mi ESE 8.1 mph - -   Partly Cloudy
12:00 AM 68.0 °F 62.6 °F 83% 30.01 in 5.0 mi ESE 8.1 mph - N/A   Scattered Clouds
1:00 AM 68.0 °F 62.6 °F 83% 30.01 in 5.0 mi East 8.1 mph - N/A   Scattered Clouds
2:00 AM - - N/A% 0.00 in - North - - N/A   Unknown
2:30 AM 66.2 °F 60.8 °F 83% 29.98 in - East 6.9 mph - N/A   Unknown
3:00 AM 67 °F 62 °F 79% 30.01 in 2 mi ESE 4.6 mph - -  
3:00 AM 66.2 °F 62.6 °F 88% 30.01 in 2.2 mi ESE 4.6 mph - N/A   Unknown
3:30 AM 68.0 °F 62.6 °F 83% 30.01 in - ESE 6.9 mph - N/A   Unknown
4:00 AM 68.0 °F 62.6 °F 83% 30.01 in - ESE 4.6 mph - N/A   Unknown
4:30 AM 68.0 °F 62.6 °F 83% 30.01 in 5.0 mi ESE 5.8 mph - N/A   Scattered Clouds
5:00 AM 68.0 °F 62.6 °F 83% 30.01 in 5.0 mi SE 3.5 mph - N/A   Mostly Cloudy
6:00 AM 68 °F 62 °F 76% 30.03 in 5 mi SE 3.5 mph - -   Partly Cloudy
6:00 AM 68.0 °F 62.6 °F 83% 30.01 in 5.0 mi SE 3.5 mph - N/A   Scattered Clouds
7:00 AM 68.0 °F 62.6 °F 83% 30.04 in 5.0 mi ESE 3.5 mph - N/A   Scattered Clouds
8:00 AM 71.6 °F 64.4 °F 78% 30.04 in 5.0 mi South 5.8 mph - N/A   Scattered Clouds
8:30 AM 73.4 °F 62.6 °F 69% 30.04 in 5.0 mi SE 5.8 mph - N/A   Mostly Cloudy
9:00 AM 73 °F 63 °F 62% 30.07 in 5 mi South 6.9 mph - -   Partly Cloudy
9:00 AM 73.4 °F 62.6 °F 69% 30.06 in 5.0 mi South 6.9 mph - N/A   Mostly Cloudy
9:30 AM 75.2 °F 62.6 °F 65% 30.06 in 5.0 mi SSE 5.8 mph - N/A   Mostly Cloudy
10:00 AM 77.0 °F 62.6 °F 61% 30.06 in 5.0 mi SSE 5.8 mph - N/A   Mostly Cloudy
11:00 AM 78.8 °F 62.6 °F 57% 30.06 in 5.0 mi NW 9.2 mph - N/A   Mostly Cloudy
11:30 AM 77.0 °F 62.6 °F 61% 30.06 in 5.0 mi NW 8.1 mph - N/A   Mostly Cloudy
12:00 PM 78 °F 62 °F 49% 30.09 in 5 mi NW 6.9 mph - -   Partly Cloudy
12:00 PM 78.8 °F 62.6 °F 57% 30.06 in 5.0 mi NW 6.9 mph - N/A   Mostly Cloudy
12:30 PM 77.0 °F 62.6 °F 61% 30.06 in 5.0 mi NNW 4.6 mph - N/A   Mostly Cloudy
1:00 PM 78.8 °F 62.6 °F 57% 30.06 in 5.0 mi West 8.1 mph - N/A   Mostly Cloudy
1:30 PM 78.8 °F 62.6 °F 57% 30.06 in 5.0 mi West 6.9 mph - N/A   Mostly Cloudy
2:00 PM 78.8 °F 62.6 °F 57% 30.06 in 5.0 mi WNW 6.9 mph - N/A   Mostly Cloudy
2:30 PM 78.8 °F 62.6 °F 57% 30.04 in 5.0 mi WNW 5.8 mph - N/A   Mostly Cloudy
3:00 PM 79 °F 62 °F 47% 30.06 in 5 mi WNW 6.9 mph - -   Partly Cloudy
3:00 PM 78.8 °F 62.6 °F 57% 30.04 in 5.0 mi WNW 6.9 mph - N/A   Mostly Cloudy
3:30 PM 78.8 °F 62.6 °F 57% 30.04 in 5.0 mi West 8.1 mph - N/A   Scattered Clouds
4:00 PM 75.2 °F 62.6 °F 65% 30.06 in 5.0 mi West 9.2 mph - N/A   Mostly Cloudy
4:30 PM 75.2 °F 62.6 °F 65% 30.06 in 5.0 mi West 9.2 mph - N/A   Mostly Cloudy
5:00 PM 73.4 °F 62.6 °F 69% 30.06 in 5.0 mi West 9.2 mph - N/A   Mostly Cloudy
5:30 PM 73.4 °F 62.6 °F 69% 30.06 in 5.0 mi West 6.9 mph - N/A   Mostly Cloudy
6:00 PM 73 °F 64 °F 65% 30.07 in 5 mi West 6.9 mph - -   Mostly Cloudy
6:00 PM 73.4 °F 62.6 °F 69% 30.06 in 5.0 mi West 6.9 mph - N/A   Mostly Cloudy
6:30 PM 71.6 °F 64.4 °F 78% 30.06 in 5.0 mi West 3.5 mph - N/A   Mostly Cloudy
7:00 PM 71.6 °F 64.4 °F 78% 30.06 in 5.0 mi WSW 4.6 mph - N/A   Mostly Cloudy
7:30 PM 69.8 °F 64.4 °F 83% 30.09 in 5.0 mi West 3.5 mph - N/A   Mostly Cloudy
8:00 PM 69.8 °F 64.4 °F 83% 30.09 in 5.0 mi West 3.5 mph - N/A   Mostly Cloudy
8:30 PM 69.8 °F 64.4 °F 83% 30.12 in 5.0 mi West 3.5 mph - N/A   Mostly Cloudy
9:00 PM 68 °F 64 °F 82% 30.13 in 5 mi Calm Calm - -   Mostly Cloudy
9:00 PM 68.0 °F 64.4 °F 88% 30.12 in 5.0 mi Calm Calm - N/A   Mostly Cloudy
9:30 PM 68.0 °F 62.6 °F 83% 30.12 in 5.0 mi West 3.5 mph - N/A   Mostly Cloudy
10:00 PM 66.2 °F 62.6 °F 88% 30.12 in 5.0 mi NW 2.3 mph - N/A   Mostly Cloudy
10:30 PM 66.2 °F 62.6 °F 88% 30.12 in 3.7 mi NE 2.3 mph - N/A   Scattered Clouds
11:00 PM 64.4 °F 60.8 °F 88% 30.12 in 3.7 mi ENE 3.5 mph - N/A   Scattered Clouds
11:30 PM 64.4 °F 60.8 °F 88% 30.12 in 3.1 mi NE 2.3 mph - N/A   Scattered Clouds